| time (UTC) | temp C | wind direction | speed KPH | gust KPH | rain 1hr cm | rain 24hr cm | rain mn cm | humidity % | barometer mb |
| 20260503231543 | 10 | 242 | 3.2 | 8.0 | 0.00 | 0.03 | 0.00 | 90 | 1011.9 |
| 20260503230042 | 10 | 219 | 3.2 | 8.0 | 0.00 | 0.03 | 0.00 | 90 | 1012.0 |
| 20260503224540 | 11 | 226 | 4.8 | 11.3 | 0.00 | 0.03 | 0.00 | 90 | 1012.0 |
| 20260503223041 | 11 | 209 | 3.2 | 6.4 | 0.00 | 0.03 | 0.00 | 90 | 1011.8 |
| 20260503221542 | 11 | 209 | 1.6 | 4.8 | 0.00 | 0.03 | 0.00 | 89 | 1011.8 |
| 20260503220042 | 11 | 273 | 1.6 | 6.4 | 0.00 | 0.03 | 0.00 | 89 | 1011.8 |
| 20260503214533 | 11 | 242 | 4.8 | 12.9 | 0.00 | 0.03 | 0.03 | 89 | 1011.9 |
| 20260503213038 | 11 | 263 | 3.2 | 11.3 | 0.00 | 0.03 | 0.03 | 88 | 1012.0 |
| 20260503211533 | 11 | 252 | 3.2 | 14.5 | 0.00 | 0.03 | 0.03 | 87 | 1011.8 |
| 20260503210029 | 11 | 246 | 6.4 | 11.3 | 0.00 | 0.03 | 0.03 | 87 | 1011.8 |
| 20260503204528 | 12 | 246 | 6.4 | 17.7 | 0.00 | 0.03 | 0.03 | 86 | 1011.6 |
| 20260503203029 | 12 | 244 | 6.4 | 19.3 | 0.00 | 0.03 | 0.03 | 86 | 1011.6 |
| 20260503201530 | 12 | 281 | 4.8 | 17.7 | 0.00 | 0.03 | 0.03 | 86 | 1011.5 |
| 20260503200031 | 12 | 253 | 8.0 | 16.1 | 0.00 | 0.03 | 0.03 | 85 | 1011.5 |
| 20260503194528 | 12 | 251 | 8.0 | 19.3 | 0.00 | 0.03 | 0.03 | 86 | 1011.5 |
| 20260503193024 | 12 | 177 | 8.0 | 17.7 | 0.00 | 0.03 | 0.03 | 86 | 1011.6 |
| 20260503191526 | 12 | 238 | 8.0 | 17.7 | 0.00 | 0.03 | 0.03 | 85 | 1011.7 |
| 20260503190027 | 12 | 257 | 6.4 | 16.1 | 0.00 | 0.03 | 0.03 | 85 | 1011.6 |
| 20260503184526 | 12 | 222 | 4.8 | 14.5 | 0.00 | 0.03 | 0.03 | 84 | 1011.5 |
| 20260503183030 | 12 | 227 | 4.8 | 22.5 | 0.00 | 0.03 | 0.03 | 83 | 1011.4 |
| 20260503181528 | 12 | 225 | 6.4 | 17.7 | 0.00 | 0.03 | 0.03 | 83 | 1011.2 |
| 20260503180019 | 12 | 251 | 8.0 | 17.7 | 0.00 | 0.03 | 0.03 | 83 | 1011.0 |
| 20260503174520 | 12 | 230 | 8.0 | 22.5 | 0.00 | 0.03 | 0.03 | 83 | 1010.8 |
| 20260503173038 | 13 | 253 | 3.2 | 19.3 | 0.00 | 0.03 | 0.03 | 84 | 1010.8 |
| 20260503171517 | 13 | 187 | 8.0 | 19.3 | 0.00 | 0.03 | 0.03 | 84 | 1010.8 |
| 20260503100130 | 15 | 236 | 4.8 | 22.5 | 0.00 | 0.00 | 0.00 | 57 | 1011.0 |
| 20260503081555 | 14 | 212 | 4.8 | 16.1 | 0.00 | 0.00 | 0.00 | 55 | 1011.0 |
| 20260503071551 | 13 | 242 | 3.2 | 11.3 | 0.00 | 0.00 | 0.00 | 58 | 1011.1 |
| 20260503054538 | 12 | 212 | 9.7 | 20.9 | 0.00 | 0.00 | 0.00 | 62 | 1011.0 |
| 20260503053041 | 12 | 217 | 11.3 | 24.1 | 0.00 | 0.00 | 0.00 | 63 | 1011.0 |
| 20260503051534 | 12 | 239 | 6.4 | 17.7 | 0.00 | 0.00 | 0.00 | 65 | 1011.0 |
| 20260503050035 | 12 | 252 | 1.6 | 11.3 | 0.00 | 0.00 | 0.00 | 68 | 1011.1 |
| 20260503044603 | 12 | 205 | 1.6 | 9.7 | 0.00 | 0.00 | 0.00 | 68 | 1011.2 |
| 20260503043030 | 12 | 257 | 0.0 | 9.7 | 0.00 | 0.00 | 0.00 | 68 | 1011.2 |
| 20260503041528 | 12 | 227 | 1.6 | 8.0 | 0.00 | 0.00 | 0.00 | 68 | 1011.2 |
| 20260503040029 | 12 | 257 | 1.6 | 11.3 | 0.00 | 0.00 | 0.00 | 68 | 1011.4 |
| 20260503034529 | 12 | 238 | 3.2 | 9.7 | 0.00 | 0.00 | 0.00 | 70 | 1011.4 |
| 20260503033028 | 12 | 250 | 3.2 | 6.4 | 0.00 | 0.00 | 0.00 | 71 | 1011.4 |
| 20260503031525 | 12 | 251 | 0.0 | 6.4 | 0.00 | 0.00 | 0.00 | 71 | 1011.3 |
| 20260503030026 | 12 | 261 | 0.0 | 4.8 | 0.00 | 0.00 | 0.00 | 71 | 1011.3 |
| 20260503024523 | 12 | 261 | 0.0 | 3.2 | 0.00 | 0.00 | 0.00 | 70 | 1011.3 |
| 20260503023021 | 12 | 269 | 1.6 | 8.0 | 0.00 | 0.00 | 0.00 | 70 | 1011.6 |
| 20260503021523 | 12 | 261 | 3.2 | 11.3 | 0.00 | 0.00 | 0.00 | 70 | 1011.7 |
| 20260503020032 | 12 | 248 | 0.0 | 8.0 | 0.00 | 0.00 | 0.00 | 70 | 1011.8 |
| 20260503014517 | 12 | 236 | 1.6 | 4.8 | 0.00 | 0.00 | 0.00 | 69 | 1012.0 |
| 20260503013015 | 13 | 236 | 1.6 | 6.4 | 0.00 | 0.00 | 0.00 | 69 | 1012.2 |
| 20260503011514 | 13 | 261 | 0.0 | 4.8 | 0.00 | 0.00 | 0.00 | 69 | 1012.4 |
| 20260503010012 | 13 | 261 | 1.6 | 6.4 | 0.00 | 0.00 | 0.00 | 69 | 1012.5 |
| 20260503004509 | 13 | 255 | 1.6 | 6.4 | 0.00 | 0.00 | 0.00 | 69 | 1012.6 |
| 20260503003012 | 13 | 256 | 1.6 | 4.8 | 0.00 | 0.00 | 0.00 | 69 | 1012.7 |
| 20260503001510 | 13 | 256 | 1.6 | 6.4 | 0.00 | 0.00 | 0.00 | 69 | 1012.8 |
| 20260503000013 | 13 | 256 | 0.0 | 4.8 | 0.00 | 0.00 | 0.00 | 70 | 1012.9 |
| 20260502234618 | 13 | 256 | 1.6 | 6.4 | 0.00 | 0.00 | 0.00 | 71 | 1013.0 |
| 20260502233157 | 13 | 256 | 1.6 | 6.4 | 0.00 | 0.00 | 0.00 | 73 | 1013.1 |